User: anonymous   Login
Location: Unspecified
(0.0000°N, 0.0000°E)
Time: 05:24:50
(UTC+00:00)
Language:

CALISTUS E - Orbit

View from above orbital plane
View from above orbital plane
View from above satellite
View from above satellite

Ground track
Ground track

The orbit is defined by the following mean orbital elements,

1 65302U          26145.20822264 +.00000000 +00000-0 +12410-2 0 00003
2 65302  97.9642 228.8127 0016931 150.7365 209.4798 14.78844433    07
Epoch (UTC): 25 May 2026 04:59:50
Eccentricity: 0.0016931
inclination: 97.9642°
perigee height: 621 km
apogee height: 645 km
right ascension of ascending node: 228.8127°
argument of perigee: 150.7365°
revolutions per day: 14.78844433
mean anomaly at epoch: 209.4798°

The dashed part of the orbit path shows where the satellite is in the earth's shadow,  

DLR